Buffalo, MN

12:14 PM CDT on June 25, 2017 (GMT -0500)
Buffalo

Weather History for KCFE - August, 2012

Change the Weather History Date:

Thursday, August 30, 2012

  Actual Average (KMIC) Record (KMIC)
Temperature  
Mean Temperature 76 °F -  
Max Temperature 83 °F 77 °F 91 °F (2010)
Min Temperature 69 °F 56 °F 46 °F (2003)
Cooling Degree Days 11    
Growing Degree Days 26 (Base 50)    
Moisture  
Dew Point 62 °F    
Average Humidity 63    
Maximum Humidity 71    
Minimum Humidity 48    
Precipitation  
Precipitation 0.00 in - - ()
Sea Level Pressure  
Sea Level Pressure 29.80 in    
Wind  
Wind Speed 7 mph (SSW)    
Max Wind Speed 12 mph    
Max Gust Speed 16 mph    
Visibility 10 miles    
Events      
Averages and records for this station are not official NWS values.
T = Trace of Precipitation, MM = Missing Value Source: NWS Daily Summary

Daily Weather History Graph

Daily Weather History Graph

Search for Another Location

Airport or City:

Trip Planner

Search our weather history database for the weather conditions in past years. The results will help you decide how hot, cold, wet, or windy it might be!

Date:

Astronomy

Aug. 30, 2012 Rise Set
Actual Time 6:35 AM CDT 7:55 PM CDT
Civil Twilight 6:04 AM CDT 8:25 PM CDT
Nautical Twilight 5:28 AM CDT 9:02 PM CDT
Astronomical Twilight 4:48 AM CDT 9:41 PM CDT
Moon 7:08 PM CDT (8/30) 5:37 AM CDT (8/30)
Length of Visible Light 14h 20m
Length of Day
13h 19m
Waxing Gibbous, 99% of the Moon is Illuminated
Aug 30
Waxing Gibbous
Aug 31
Full
Sep 8
Last Quarter
Sep 15
New
Sep 22
First Quarter

Hourly Weather History & Observations

Time (CDT) Temp. Heat Index Dew Point Humidity Pressure Visibility Wind Dir Wind Speed Gust Speed Precip Events Conditions
12:22 AM 76.1 °F - 62.6 °F 63% 29.77 in 10.0 mi SSE 6.9 mph - N/A   Clear
12:34 AM 76.1 °F - 62.6 °F 63% 29.77 in 10.0 mi SSE 6.9 mph - N/A   Clear
12:53 AM 76.1 °F - 62.4 °F 62% 29.77 in 10.0 mi SSE 9.2 mph - N/A   Clear
1:13 AM 76.1 °F - 62.6 °F 63% 29.77 in 10.0 mi South 8.1 mph - N/A   Clear
1:33 AM 76.1 °F - 62.8 °F 63% 29.76 in 10.0 mi South 8.1 mph - N/A   Clear
1:53 AM 75.0 °F - 62.1 °F 64% 29.76 in 10.0 mi South 5.8 mph - N/A   Clear
2:13 AM 74.3 °F - 62.1 °F 65% 29.76 in 10.0 mi South 6.9 mph - N/A   Clear
2:33 AM 74.3 °F - 62.2 °F 66% 29.76 in 10.0 mi South 8.1 mph - N/A   Clear
2:53 AM 73.6 °F - 61.9 °F 67% 29.75 in 10.0 mi SSE 5.8 mph - N/A   Clear
3:13 AM 73.4 °F - 61.7 °F 67% 29.74 in 10.0 mi SSE 9.2 mph - N/A   Clear
3:33 AM 73.4 °F - 61.7 °F 67% 29.74 in 10.0 mi South 6.9 mph - N/A   Clear
3:53 AM 73.6 °F - 61.9 °F 67% 29.74 in 10.0 mi South 5.8 mph - N/A   Clear
4:13 AM 73.4 °F - 61.9 °F 67% 29.73 in 10.0 mi SSE 6.9 mph - N/A   Clear
4:33 AM 73.4 °F - 61.7 °F 67% 29.73 in 10.0 mi South 6.9 mph 16.1 mph N/A   Clear
4:53 AM 73.2 °F - 61.9 °F 68% 29.72 in 10.0 mi South 6.9 mph - N/A   Clear
5:13 AM 72.7 °F - 61.7 °F 68% 29.72 in 10.0 mi South 9.2 mph - N/A   Clear
5:33 AM 72.5 °F - 61.9 °F 69% 29.72 in 10.0 mi SSE 5.8 mph - N/A   Clear
5:53 AM 72.5 °F - 61.7 °F 69% 29.72 in 10.0 mi South 6.9 mph - N/A   Clear
6:13 AM 72.0 °F - 61.7 °F 70% 29.72 in 10.0 mi South 5.8 mph - N/A   Clear
6:33 AM 71.2 °F - 61.3 °F 71% 29.72 in 10.0 mi South 6.9 mph - N/A   Clear
6:53 AM 71.4 °F - 61.2 °F 70% 29.73 in 10.0 mi South 6.9 mph - N/A   Clear
7:13 AM 71.8 °F - 61.5 °F 70% 29.74 in 10.0 mi South 6.9 mph - N/A   Clear
7:33 AM 72.5 °F - 61.7 °F 69% 29.74 in 10.0 mi South 6.9 mph - N/A   Clear
7:53 AM 73.2 °F - 61.7 °F 67% 29.74 in 10.0 mi South 9.2 mph - N/A   Clear
8:14 AM 72.9 °F - 61.5 °F 67% 29.75 in 10.0 mi South 8.1 mph - N/A   Clear
8:33 AM 74.3 °F - 61.9 °F 65% 29.76 in 10.0 mi South 8.1 mph - N/A   Clear
8:53 AM 74.5 °F - 61.7 °F 64% 29.76 in 10.0 mi South 6.9 mph - N/A   Clear
9:14 AM 75.2 °F - 62.1 °F 64% 29.76 in 10.0 mi SSW 8.1 mph - N/A   Clear
9:33 AM 76.1 °F - 61.9 °F 61% 29.76 in 10.0 mi South 8.1 mph - N/A   Clear
9:53 AM 77.2 °F - 62.2 °F 60% 29.76 in 10.0 mi South 6.9 mph - N/A   Clear
10:14 AM 77.0 °F - 61.9 °F 59% 29.76 in 10.0 mi South 11.5 mph - N/A   Clear
10:33 AM 76.1 °F - 62.6 °F 63% 29.78 in 10.0 mi SSW 6.9 mph - N/A   Clear
10:53 AM 76.3 °F - 62.4 °F 62% 29.78 in 10.0 mi SSW 5.8 mph - N/A   Clear
11:14 AM 76.3 °F - 62.6 °F 62% 29.78 in 10.0 mi South 5.8 mph - N/A   Clear
11:33 AM 77.4 °F - 63.3 °F 62% 29.78 in 10.0 mi South 6.9 mph - N/A   Clear
11:53 AM 79.5 °F - 63.9 °F 59% 29.78 in 10.0 mi South 5.8 mph - N/A   Clear
12:14 PM 81.5 °F 82.4 °F 61.9 °F 51% 29.77 in 10.0 mi South 9.2 mph - N/A   Clear
12:33 PM 83.3 °F 83.9 °F 61.5 °F 48% 29.77 in 10.0 mi South 10.4 mph - N/A   Clear
12:53 PM 82.2 °F 83.0 °F 61.7 °F 50% 29.77 in 10.0 mi South 11.5 mph 16.1 mph N/A   Clear
1:14 PM 81.5 °F 82.5 °F 62.4 °F 52% 29.79 in 10.0 mi SSW 8.1 mph - N/A   Clear
1:33 PM 81.5 °F 82.7 °F 62.8 °F 53% 29.81 in 10.0 mi SW 5.8 mph - N/A   Clear
1:53 PM 83.1 °F 84.2 °F 63.3 °F 51% 29.80 in 10.0 mi SW 6.9 mph - N/A   Clear
2:14 PM 81.7 °F 82.9 °F 62.8 °F 53% 29.81 in 10.0 mi SSW 5.8 mph - N/A   Clear
2:33 PM 83.3 °F 84.4 °F 63.3 °F 51% 29.80 in 10.0 mi SSW 6.9 mph - N/A   Clear
2:53 PM 83.3 °F 84.3 °F 63.1 °F 50% 29.79 in 10.0 mi SSW 4.6 mph - N/A   Clear
3:13 PM 82.9 °F 84.4 °F 64.0 °F 53% 29.81 in 10.0 mi SSW 3.5 mph - N/A   Clear
3:33 PM 83.1 °F 84.2 °F 63.5 °F 51% 29.79 in 10.0 mi South 4.6 mph - N/A   Clear
3:53 PM 82.4 °F 83.9 °F 64.4 °F 54% 29.82 in 10.0 mi WSW 5.8 mph - N/A   Clear
4:13 PM 81.7 °F 83.3 °F 64.4 °F 56% 29.82 in 10.0 mi WSW 3.5 mph - N/A   Clear
4:33 PM 81.7 °F 83.2 °F 63.9 °F 55% 29.84 in 10.0 mi WNW 8.1 mph - N/A   Clear
4:53 PM 80.1 °F 81.6 °F 63.7 °F 57% 29.84 in 10.0 mi NNW 4.6 mph - N/A   Clear
5:14 PM 81.5 °F 82.9 °F 63.7 °F 55% 29.83 in 10.0 mi WNW 5.8 mph - N/A   Clear
5:33 PM 80.2 °F 81.9 °F 64.2 °F 58% 29.85 in 10.0 mi WNW 8.1 mph - N/A   Clear
5:53 PM 79.7 °F - 64.9 °F 61% 29.83 in 10.0 mi NNW 5.8 mph - N/A   Clear
6:14 PM 77.9 °F - 65.1 °F 65% 29.81 in 10.0 mi North 4.6 mph - N/A   Clear
6:33 PM 76.6 °F - 65.3 °F 68% 29.80 in 10.0 mi SE 3.5 mph - N/A   Clear
6:53 PM 77.0 °F - 65.7 °F 68% 29.84 in 10.0 mi WNW 5.8 mph - N/A   Clear
7:14 PM 77.0 °F - 65.8 °F 68% 29.84 in 10.0 mi NW 5.8 mph - N/A   Clear
7:33 PM 76.3 °F - 66.2 °F 71% 29.85 in 10.0 mi NW 6.9 mph - N/A   Clear
7:53 PM 76.1 °F - 65.3 °F 69% 29.86 in 10.0 mi NW 6.9 mph - N/A   Clear
8:14 PM 74.7 °F - 63.5 °F 68% 29.87 in 10.0 mi NNW 4.6 mph - N/A   Clear
8:33 PM 74.3 °F - 63.1 °F 68% 29.88 in 10.0 mi NW 6.9 mph - N/A   Clear
8:53 PM 73.4 °F - 62.4 °F 68% 29.88 in 10.0 mi NNW 6.9 mph - N/A   Clear
9:14 PM 73.4 °F - 60.8 °F 65% 29.89 in 10.0 mi NNW 6.9 mph - N/A   Clear
9:33 PM 72.7 °F - 60.4 °F 65% 29.90 in 10.0 mi North 5.8 mph - N/A   Clear
9:53 PM 72.5 °F - 60.3 °F 65% 29.91 in 10.0 mi NNW 3.5 mph - N/A   Clear
10:14 PM 71.2 °F - 59.2 °F 66% 29.92 in 10.0 mi North 5.8 mph - N/A   Clear
10:33 PM 70.9 °F - 58.8 °F 66% 29.93 in 10.0 mi NNW 5.8 mph - N/A   Clear
10:53 PM 70.2 °F - 58.1 °F 65% 29.94 in 10.0 mi NNW 6.9 mph - N/A   Clear
11:33 PM 69.6 °F - 57.6 °F 65% 29.95 in 10.0 mi NNW 6.9 mph - N/A   Clear
11:53 PM 69.3 °F - 57.4 °F 66% 29.96 in 10.0 mi North 5.8 mph - N/A   Clear